sat.trackr.live / text

‹ back to catalog

STARLINK-32438

NORAD 61722 · 2024-196R

PAYLOAD ACTIVE UNKNOWN

§ Identity

Operator
Country
US
Launch date
2024-10-30
Launch site
AFETR
Launch vehicle
Mass (kg)
RCS (m²)

Purposes: comms

External: N2YO · Heavens-Above · Gunter

§ Orbital elements

Epoch: 2026-09-21T00:46:36.870816Z

Period
93.85 min
Inclination
53.1601°
Eccentricity
0.0001473
Mean motion
15.34391822 rev/d
Perigee alt
461.7 km
Apogee alt
463.7 km
Semi-major
6,840.9 km
B*
3.1296e-5
RAAN
271.2139°
Arg perigee
88.9292°
Mean anomaly
271.1879°
Rev number
10,710

§ Raw data

STARLINK-324381 61722U 24196R   26264.03237119  .00000681  00000+0  31296-4 0  99952 61722  53.1601 271.2139 0001473  88.9292 271.1879 15.34391822107106

JSON: /api/v1/satellites/61722 · /tle

For live sub-satellite position, see the globe view (requires WebGL).

§ Visibility from observer

Set your observer location to see the next 7 days of passes ≥ 10°. The values pass through the URL so the page stays shareable.

No JS? Fill the form by hand. The geolocation button needs JavaScript.